Marble, NC

12:28 PM EST on December 08, 2016 (GMT -0500)
Andrews

Weather History for KRHP - May, 2013

Change the Weather History Date:

Sunday, May 12, 2013

  Actual Average (KMMI) Record (KMMI)
Temperature  
Mean Temperature 50 °F -  
Max Temperature 62 °F 77 °F 87 °F (2014)
Min Temperature 38 °F 51 °F 59 °F (2014)
Degree Days  
Heating Degree Days 15    
Moisture  
Dew Point 41 °F    
Average Humidity 69    
Maximum Humidity 100    
Minimum Humidity 30    
Precipitation  
Precipitation 0.00 in - - ()
Sea Level Pressure  
Sea Level Pressure 30.04 in    
Wind  
Wind Speed 3 mph (NNE)    
Max Wind Speed 16 mph    
Max Gust Speed 21 mph    
Visibility 8 miles    
Events Fog    
Averages and records for this station are not official NWS values.
T = Trace of Precipitation, MM = Missing Value Source: NWS Daily Summary

Daily Weather History Graph

Daily Weather History Graph

Search for Another Location

Airport or City:

Trip Planner

Search our weather history database for the weather conditions in past years. The results will help you decide how hot, cold, wet, or windy it might be!

Date:

Astronomy

May. 12, 2013 Rise Set
Actual Time 6:33 AM EDT 8:30 PM EDT
Civil Twilight 6:05 AM EDT 8:58 PM EDT
Nautical Twilight 5:31 AM EDT 9:32 PM EDT
Astronomical Twilight 4:55 AM EDT 10:08 PM EDT
Moon 8:29 AM EDT (5/12) 10:55 PM EDT (5/12)
Length of Visible Light 14h 52m
Length of Day
13h 56m
Waxing Crescent, 6% of the Moon is Illuminated
May 12
Waxing Crescent
May 18
First Quarter
May 25
Full
May 31
Last Quarter
Jun 8
New

Hourly Weather History & Observations

Time (EDT) Temp. Dew Point Humidity Pressure Visibility Wind Dir Wind Speed Gust Speed Precip Events Conditions
12:15 AM 54.7 °F 52.7 °F 93% 29.99 in 10.0 mi Calm Calm - N/A   Scattered Clouds
12:35 AM 51.8 °F 51.3 °F 98% 29.99 in 7.0 mi Calm Calm - N/A   Clear
12:55 AM 51.1 °F 50.4 °F 97% 29.99 in 7.0 mi Calm Calm - N/A   Clear
1:15 AM 50.9 °F 49.3 °F 94% 29.99 in 10.0 mi NNE 5.8 mph - N/A   Clear
1:35 AM 50.9 °F 49.1 °F 94% 29.99 in 10.0 mi Calm Calm - N/A   Clear
1:55 AM 49.5 °F 48.6 °F 97% 29.99 in 10.0 mi Calm Calm - N/A   Scattered Clouds
2:15 AM 48.9 °F 48.0 °F 97% 30.00 in 10.0 mi Calm Calm - N/A   Clear
2:35 AM 48.9 °F 48.0 °F 97% 29.99 in 10.0 mi Calm Calm - N/A   Scattered Clouds
2:55 AM 47.1 °F 46.6 °F 98% 29.99 in 7.0 mi Calm Calm - N/A   Scattered Clouds
3:15 AM 45.3 °F 45.0 °F 99% 29.99 in 0.5 mi Calm Calm - N/A Fog Fog
3:35 AM 45.9 °F 45.7 °F 99% 29.99 in 0.8 mi Calm Calm - N/A   Overcast
3:55 AM 45.0 °F 44.8 °F 99% 29.99 in 0.2 mi Calm Calm - N/A Fog Fog
4:15 AM 45.5 °F 45.3 °F 99% 29.99 in 0.8 mi Calm Calm - N/A   Overcast
4:35 AM 44.8 °F 44.6 °F 99% 29.99 in 0.5 mi Calm Calm - N/A Fog Fog
4:55 AM 44.8 °F 44.8 °F 100% 29.99 in 0.2 mi Calm Calm - N/A Fog Fog
5:35 AM 45.7 °F 45.5 °F 99% 29.99 in 0.5 mi Calm Calm - N/A Fog Fog
5:55 AM 45.9 °F 45.9 °F 100% 29.99 in 0.8 mi Calm Calm - N/A   Overcast
6:15 AM 45.5 °F 45.3 °F 99% 29.99 in 7.0 mi Calm Calm - N/A   Overcast
6:35 AM 46.0 °F 46.0 °F 100% 30.00 in 0.5 mi Calm Calm - N/A Fog Fog
6:55 AM 46.4 °F 46.4 °F 100% 30.01 in 0.2 mi Calm Calm - N/A Fog Fog
7:15 AM 46.4 °F 46.4 °F 100% 30.01 in 1.5 mi Calm Calm - N/A   Mostly Cloudy
7:35 AM 46.2 °F 46.2 °F 100% 30.02 in 5.0 mi Calm Calm - N/A   Scattered Clouds
7:55 AM 47.3 °F 47.3 °F 100% 30.03 in 5.0 mi Calm Calm - N/A   Mostly Cloudy
8:15 AM 48.2 °F 47.8 °F 99% 30.03 in 7.0 mi Calm Calm - N/A   Mostly Cloudy
8:35 AM 51.8 °F 48.4 °F 88% 30.04 in 10.0 mi NNE 4.6 mph - N/A   Mostly Cloudy
8:55 AM 52.5 °F 47.5 °F 83% 30.04 in 10.0 mi NE 9.2 mph - N/A   Scattered Clouds
9:15 AM 53.2 °F 47.5 °F 81% 30.05 in 10.0 mi NE 6.9 mph - N/A   Scattered Clouds
9:35 AM 54.3 °F 46.2 °F 74% 30.04 in 10.0 mi East 6.9 mph - N/A   Clear
9:55 AM 55.4 °F 45.7 °F 70% 30.04 in 10.0 mi East 4.6 mph - N/A   Mostly Cloudy
10:15 AM 55.0 °F 43.5 °F 65% 30.04 in 10.0 mi East 4.6 mph - N/A   Overcast
10:35 AM 56.7 °F 44.4 °F 64% 30.05 in 10.0 mi East 8.1 mph - N/A   Overcast
10:55 AM 57.4 °F 43.7 °F 60% 30.05 in 10.0 mi ENE 9.2 mph - N/A   Mostly Cloudy
11:15 AM 57.6 °F 41.9 °F 56% 30.05 in 10.0 mi NNE 8.1 mph - N/A   Mostly Cloudy
11:35 AM 58.5 °F 40.8 °F 52% 30.06 in 10.0 mi NNE 3.5 mph - N/A   Scattered Clouds
11:55 AM 59.2 °F 40.6 °F 50% 30.06 in 10.0 mi East 8.1 mph - N/A   Scattered Clouds
12:15 PM 59.4 °F 42.4 °F 54% 30.06 in 10.0 mi ENE 9.2 mph - N/A   Mostly Cloudy
12:35 PM 59.0 °F 41.2 °F 52% 30.06 in 10.0 mi East 5.8 mph - N/A   Mostly Cloudy
12:55 PM 60.6 °F 41.7 °F 50% 30.06 in 10.0 mi ESE 9.2 mph - N/A   Scattered Clouds
1:15 PM 61.0 °F 40.3 °F 46% 30.06 in 10.0 mi ENE 9.2 mph - N/A   Scattered Clouds
1:35 PM 61.7 °F 39.7 °F 44% 30.06 in 10.0 mi NNE 8.1 mph - N/A   Clear
1:55 PM 62.2 °F 40.5 °F 45% 30.05 in 10.0 mi NNE 4.6 mph - N/A   Scattered Clouds
2:15 PM 61.7 °F 36.5 °F 39% 30.05 in 10.0 mi NNE 11.5 mph - N/A   Scattered Clouds
2:35 PM 62.6 °F 36.7 °F 38% 30.05 in 10.0 mi NNE 12.7 mph 16.1 mph N/A   Scattered Clouds
2:55 PM 62.4 °F 36.7 °F 38% 30.04 in 10.0 mi NNE 11.5 mph 20.7 mph N/A   Clear
3:15 PM 62.1 °F 32.2 °F 33% 30.04 in 10.0 mi North 9.2 mph - N/A   Clear
3:35 PM 61.9 °F 31.6 °F 32% 30.04 in 10.0 mi North 16.1 mph 20.7 mph N/A   Clear
3:55 PM 61.9 °F 31.8 °F 32% 30.04 in 10.0 mi North 6.9 mph 18.4 mph N/A   Clear
4:15 PM 61.7 °F 34.2 °F 36% 30.03 in 10.0 mi NNE 11.5 mph 18.4 mph N/A   Clear
4:35 PM 61.5 °F 34.3 °F 36% 30.04 in 10.0 mi NE 9.2 mph 17.3 mph N/A   Clear
4:55 PM 61.2 °F 35.1 °F 38% 30.04 in 10.0 mi NE 10.4 mph - N/A   Clear
5:15 PM 61.9 °F 34.5 °F 36% 30.05 in 10.0 mi NNE 10.4 mph - N/A   Clear
5:35 PM 61.2 °F 32.9 °F 35% 30.05 in 10.0 mi NE 5.8 mph - N/A   Clear
5:55 PM 60.8 °F 31.1 °F 33% 30.06 in 10.0 mi North 11.5 mph - N/A   Clear
6:15 PM 60.3 °F 28.8 °F 30% 30.06 in 10.0 mi North 9.2 mph - N/A   Clear
6:35 PM 59.4 °F 29.3 °F 32% 30.06 in 10.0 mi North 10.4 mph - N/A   Clear
6:55 PM 59.0 °F 28.8 °F 32% 30.06 in 10.0 mi NNW 6.9 mph - N/A   Clear
7:15 PM 58.3 °F 29.3 °F 33% 30.07 in 10.0 mi NNE 10.4 mph - N/A   Clear
7:35 PM 57.2 °F 29.8 °F 35% 30.07 in 10.0 mi North 8.1 mph - N/A   Clear
7:55 PM 55.0 °F 32.5 °F 43% 30.07 in 10.0 mi NNW 3.5 mph - N/A   Clear
8:15 PM 53.2 °F 32.7 °F 46% 30.08 in 10.0 mi North 5.8 mph - N/A   Clear
8:35 PM 49.6 °F 35.4 °F 58% 30.08 in 10.0 mi NW 4.6 mph - N/A   Clear
8:55 PM 48.6 °F 36.7 °F 64% 30.09 in 10.0 mi Calm Calm - N/A   Clear
9:15 PM 46.2 °F 37.0 °F 70% 30.10 in 10.0 mi Calm Calm - N/A   Clear
9:35 PM 43.3 °F 37.8 °F 81% 30.11 in 10.0 mi Calm Calm - N/A   Clear
9:55 PM 43.0 °F 37.0 °F 80% 30.11 in 10.0 mi Calm Calm - N/A   Clear
10:15 PM 44.1 °F 36.5 °F 75% 30.12 in 10.0 mi Calm Calm - N/A   Clear
10:35 PM 41.4 °F 36.7 °F 83% 30.12 in 10.0 mi Calm Calm - N/A   Clear
10:55 PM 41.0 °F 37.6 °F 88% 30.13 in 10.0 mi Calm Calm - N/A   Clear
11:15 PM 38.5 °F 36.1 °F 91% 30.14 in 10.0 mi Calm Calm - N/A   Clear
11:35 PM 39.6 °F 35.4 °F 85% 30.13 in 10.0 mi Calm Calm - N/A   Clear
11:55 PM 39.0 °F 35.2 °F 86% 30.14 in 10.0 mi Calm Calm - N/A   Clear